SES-18 (55970 NORAD) Tracking and Keplerian Element Data

This shows tracking and keplerian element data for the satellite.

Feedback or suggestion? Click here.




ElementValue
Catalog55970
NameSES-18
Epoch Orbit71
Epoch Day127.26342875
Epoch Year2023
RAAN267.1224
Inclination0.0461
Eccentricity0.0001298
Argument of Perigee43.2428
Mean Anonmoly237.1779
Mean Motion1.00528351
Decay Rate5.7E-07
L11 55970U 23038A 23127.26342875 .00000057 00000+0 00000+0 0 9994
L22 55970 0.0461 267.1224 0001298 43.2428 237.1779 1.00528351 715



Live tracking and technical data element details for SES-18 (NORAD 55970). SES-18 can be tracked NOW for your location showing map with azimuth and elevation plus other details from your city location.







IsCatalogInMostPopularTable: catalog: 55970, numindb: 6
Update: records affected: 1



GetName: 55970 SES-18

Hit Count: updated at: Tue, 06 Jun 2023 03:28:43 GMT